www.pogodaiklimat.ru

Погода и климат >> Архив погоды >> Австралия >> Западная Австралия >> Саутерн Кросс


ПОГОДА в Саутерн Кросс

  • Прогноз погоды в Саутерн Кросс
  • Монитор погоды в Саутерн Кросс

АРХИВ ПОГОДЫ в Саутерн Кросс

Время (UTC), дата Ветер
(напр.,м/с)
 
Видим.   Явления Облачность Т
(С)
Тd
(С)
f
(%)
Тe
(С)
Тes
(С)
Комфортность P
(гПа)
Po
(гПа)
Тmin
(С)
Tmax
(С)
R
(мм)
R24
(мм)
S
(см)
22 17.06 С 2 н/о н/о +3.5 +1.9 89 +1 +1 1027.9 986.2
00 18.06 штиль 0 н/о н/о +3.8 +2.6 92 +3 +3 1028.8 987.0
01 18.06 С 3 н/о н/о +8.5 +3.8 72 +6 +6 1028.8 987.0
03 18.06 С 4 н/о н/о +13.5 +3.8 52 +12 +12 1028.1 986.4
04 18.06 СЗ 3 н/о н/о +14.6 +3.4 47 +14 +14 1027.1 985.4
06 18.06 З 3 н/о н/о +16.5 +2.5 39 +16 +16 1025.2 983.6
07 18.06 З 3 н/о н/о +16.1 +1.8 38 +16 +16 1024.8 983.2
09 18.06 штиль 0 н/о н/о +14.4 +2.9 46 +14 +14 1024.6 983.0
10 18.06 ЮЗ 2 н/о н/о +11.2 +4.0 61 +11 +11 1024.9 983.3
12 18.06 ЮВ 3 н/о н/о +8.0 +2.7 69 +6 +6 1025.2 983.6
13 18.06 Ю 2 н/о н/о +6.7 +3.0 77 +5 +5 1025.5 983.9
15 18.06 ЮВ 2 н/о н/о +4.7 +2.2 84 +3 +3 1025.6 984.0
16 18.06 Ю 3 н/о н/о +3.4 +0.8 83 -0 -0 1025.3 983.7
18 18.06 Ю 3 н/о н/о +2.7 +1.1 89 -1 -1 1025.3 983.7
19 18.06 Ю 2 н/о н/о +2.5 +0.9 89 -0 -0 1025.4 983.8
21 18.06 Ю 3 н/о н/о +1.0 -0.5 90 -3 -3 1025.0 983.4
22 18.06 Ю 2 н/о н/о +0.4 -0.7 92 -3 -3 1025.4 983.8
00 19.06 штиль 0 н/о н/о +0.8 -0.1 94 -1 -1 1026.1 984.5
01 19.06 СВ 3 н/о н/о +8.3 +3.2 70 +6 +6 1026.0 984.4
03 19.06 С 6 н/о н/о +13.6 +1.6 44 +12 +12 1025.4 983.8
04 19.06 С 6 н/о н/о +14.2 +1.5 42 +13 +13 1024.5 982.9
06 19.06 СВ 4 н/о н/о +16.1 +0.7 35 +16 +16 1022.7 981.2
07 19.06 В 4 н/о н/о +15.8 -0.4 33 +15 +15 1022.5 981.0
09 19.06 СВ 2 н/о н/о +13.7 -0.7 37 +13 +13 1022.6 981.1
10 19.06 В 3 н/о н/о +10.7 -0.1 47 +9 +9 1022.8 981.3
12 19.06 В 2 н/о н/о +6.1 -0.4 63 +4 +4 1023.6 982.1
13 19.06 В 3 н/о н/о +7.0 -0.2 60 +4 +4 1023.9 982.3 +16.4
15 19.06 В 5 н/о н/о +7.3 -0.9 56 +4 +4 1024.0 982.4
16 19.06 В 4 н/о н/о +6.8 -0.6 59 +4 +4 1023.5 982.0
18 19.06 В 4 н/о н/о +5.6 -1.1 62 +2 +2 1023.4 981.9
19 19.06 С 2 н/о н/о +2.9 -2.2 69 0 0 1023.6 982.1
21 19.06 В 3 н/о н/о +2.8 -1.7 72 -1 -1 1022.9 981.4
22 19.06 штиль 0 н/о н/о +1.1 -2.6 76 0 0 1023.1 981.6
00 20.06 СВ 3 н/о н/о +6.3 -0.7 61 +3 +3 1023.3 981.8
01 20.06 В 5 н/о н/о +9.4 -1.0 48 +7 +7 1023.6 982.1 +0.6
03 20.06 СВ 5 н/о н/о +15.0 +0.4 37 +14 +14 1022.5 981.0
04 20.06 В 5 н/о 1/0 2000 м
[]
+16.5 +1.0 35 +16 +20 1021.2 979.8
06 20.06 В 5 н/о н/о +19.4 +1.4 30 +19 +19 1019.5 978.1
07 20.06 СВ 5 н/о 1/0 2000 м
[]
+19.6 +1.6 30 +20 +21 1019.2 977.8
09 20.06 В 4 н/о н/о +17.1 +1.9 36 +17 +17 1019.1 977.7
10 20.06 В 5 н/о 8/0 2000 м
[]
+16.0 +1.7 38 +15 +15 1019.2 977.8
12 20.06 В 5 н/о н/о +13.6 +1.9 45 +12 +12 1019.9 978.5
13 20.06 В 5 н/о 5/0
[]
+13.1 +1.1 44 +11 +11 1020.0 978.6 +20.2
15 20.06 В 5 н/о н/о +13.0 +0.7 43 +11 +11 1019.5 978.1
16 20.06 СВ 3 н/о 9/0
[]
+11.9 +0.7 46 +11 +11 1019.1 977.7
18 20.06 СВ 5 н/о н/о +12.4 +0.5 44 +11 +11 1018.3 977.0
19 20.06 СВ 5 н/о 10/0
[]
+12.3 +0.4 44 +10 +10 1018.0 976.7
21 20.06 СВ 5 н/о н/о +12.2 +0.3 44 +10 +10 1017.1 975.8
22 20.06 СВ 8 н/о 10/0
[]
+12.1 +0.2 44 +9 +9 1016.6 975.3
00 21.06 СВ 4 н/о н/о +12.0 +1.1 47 +10 +10 1017.1 975.8
01 21.06 СВ 4 н/о 10/0
[]
+13.5 +1.2 43 +12 +13 1017.3 976.0 +6.3
03 21.06 С 4 н/о н/о +17.6 +2.0 35 +17 +17 1016.9 975.6
04 21.06 С 5 н/о 10/0
[]
+20.1 +2.9 32 +20 +23 1015.9 974.7
06 21.06 С 4 н/о н/о +19.9 +3.6 34 +20 +20 1014.9 973.7
07 21.06 СВ 3 н/о 9/0
[]
+20.3 +3.5 33 +21 +23 комфорт 1014.9 973.7
09 21.06 В 3 н/о н/о +18.8 +4.6 39 +19 +19 1015.4 974.2
10 21.06 В 4 н/о 10/0
[]
+17.1 +4.8 44 +17 +17 1015.4 974.2
12 21.06 СВ 3 н/о н/о +16.0 +5.6 50 +16 +16 1015.9 974.7
13 21.06 СВ 4 н/о 5/0
[]
+14.9 +6.0 55 +14 +14 1016.0 974.8 +21.7
15 21.06 СВ 6 н/о н/о +15.2 +6.2 55 +14 +14 1015.7 974.5
16 21.06 СВ 5 н/о 9/0
[]
+15.2 +8.0 62 +14 +14 1015.0 973.8
18 21.06 З 3 н/о н/о +12.9 +8.6 75 +12 +12 1015.0 973.8
19 21.06 штиль 0 н/о 10/0
[]
+11.6 +7.9 78 +11 +11 1015.2 974.0
21 21.06 С 2 н/о н/о +11.9 +9.3 84 +11 +11 1014.9 973.7
22 21.06 С 2 н/о 1/0 2000 м
[]
+11.4 +9.1 86 +10 +10 1015.0 973.8
00 22.06 С 4 н/о н/о +14.4 +11.2 81 +13 +13 1015.6 974.4
01 22.06 С 6 н/о 10/0 2000 м
[]
+15.1 +11.3 78 +13 +14 1015.7 974.5 +11.0
03 22.06 С 5 н/о н/о +19.3 +10.0 55 +20 +20 1015.2 974.0
04 22.06 С 5 н/о 1/0
[]
+21.9 +10.4 48 +24 +27 комфорт 1013.7 972.6
06 22.06 СЗ 8 н/о н/о +24.2 +7.4 34 +24 +24 комфорт 1012.1 971.0
07 22.06 С 4 н/о 9/0
[]
+23.5 +8.0 37 +24 +25 комфорт 1012.0 970.9
09 22.06 С 6 н/о н/о +22.0 +7.8 40 +23 +23 комфорт 1011.2 970.2
10 22.06 С 4 н/о 8/0
[]
+19.4 +8.1 48 +20 +20 1011.9 970.8
12 22.06 С 6 н/о н/о +19.3 +10.6 57 +20 +20 1012.0 970.9
13 22.06 С 6 н/о 10/0
[]
+19.3 +11.1 59 +20 +20 1012.3 971.2 +24.5
15 22.06 С 7 н/о н/о +19.0 +11.3 61 +19 +19 1011.1 970.1
16 22.06 С 8 н/о 10/10 1500 м
[]
+18.6 +11.4 63 +18 +18 1011.0 970.0
18 22.06 С 5 н/о н/о +18.1 +11.0 63 +18 +18 1010.2 969.2
19 22.06 С 5 н/о 10/0
[]
+18.1 +11.0 63 +18 +18 1010.7 969.7
21 22.06 С 6 н/о н/о +18.1 +11.2 64 +18 +18 1010.6 969.6
22 22.06 С 6 н/о 10/0 2000 м
[]
+17.8 +12.5 71 +17 +17 1010.7 969.7
00 23.06 С 8 н/о н/о +16.6 +14.2 86 +15 +15 1011.3 970.3
01 23.06 С 7 н/о {туман} 8/8 600 м
[]
+17.2 +14.3 83 +16 +16 1012.0 970.9 +14.2
03 23.06 С 8 н/о н/о +16.0 +15.2 95 +14 +14 1011.9 970.8
04 23.06 С 6 н/о туман местами 10/10 300 м
[]
+16.0 +15.0 94 +15 +15 1011.7 970.6
06 23.06 С 8 н/о н/о +16.0 +14.9 93 +14 +14 1010.1 969.1
07 23.06 С 6 н/о туман местами 10/10 200 м
[]
+15.8 +15.3 97 +14 +14 1009.8 968.8
09 23.06 СЗ 6 н/о н/о +15.1 +14.6 97 +13 +13 1010.5 969.5
10 23.06 З 5 н/о туман местами н/о +14.5 +14.2 98 +13 +13 1012.2 971.1
12 23.06 СЗ 4 н/о н/о +13.0 +12.7 98 +11 +11 1013.5 972.4
13 23.06 СЗ 4 н/о {туман} н/о +12.6 +12.3 98 +11 +11 1014.4 973.2 +19.6
15 23.06 СЗ 4 н/о н/о +11.7 +10.8 94 +9 +9 1015.4 974.2
16 23.06 СЗ 5 н/о {туман} н/о +11.3 +10.7 96 +9 +9 1015.7 974.5
18 23.06 З 6 н/о н/о +11.0 +9.3 89 +8 +8 1016.9 975.6
19 23.06 З 4 н/о {туман} н/о +11.3 +10.2 93 +9 +9 1017.4 976.1
21 23.06 З 4 н/о н/о +10.1 +9.2 94 +7 +7 1018.3 977.0
22 23.06 З 4 н/о в посл. час дождь {туман} н/о +10.3 +9.5 95 +8 +8 1019.3 977.9
00 24.06 С 3 н/о н/о +10.1 +9.8 98 +8 +8 1020.4 979.0
01 24.06 З 4 н/о {туман} н/о +12.4 +11.0 91 +11 +11 1021.5 980.0 +9.0
03 24.06 СЗ 5 н/о н/о +14.0 +10.0 77 +12 +12 1022.1 980.6
04 24.06 З 5 н/о н/о +15.1 +8.3 64 +14 +14 1021.7 980.2
06 24.06 З 4 н/о н/о +15.4 +7.2 58 +14 +14 1021.1 979.7
07 24.06 З 5 н/о н/о +16.9 +8.1 56 +16 +16 1021.4 979.9
09 24.06 СЗ 4 н/о н/о +15.0 +7.8 62 +14 +14 1022.6 981.1
10 24.06 З 2 н/о н/о +12.9 +8.4 74 +12 +12 1023.3 981.8
12 24.06 штиль 0 н/о н/о +10.2 +8.3 88 +9 +9 1024.2 982.6
13 24.06 штиль 0 н/о н/о +9.3 +7.9 91 +8 +8 1024.6 983.0 +17.5
15 24.06 В 2 н/о н/о +9.8 +8.7 93 +9 +9 1024.7 983.1
16 24.06 ЮЗ 1 н/о н/о +10.4 +9.2 92 +10 +10 1024.4 982.8
18 24.06 штиль 0 н/о н/о +10.0 +8.9 93 +9 +9 1024.1 982.5
19 24.06 штиль 0 н/о н/о +9.6 +8.7 94 +9 +9 1024.0 982.4

 

Местоположение метеостанции Саутерн Кросс (Западная Австралия, Австралия): широта -31.23 долгота 119.35 высота над уровнем моря 348 м.

В архиве по умолчанию представлена погода в Саутерн Кросс за последнюю неделю. Архивные данные за месяц целиком и за предыдущие месяцы, начиная с января 2011 года, Вы можете получить, выбрав интересующий диапазон дат из раскрывающегося списка и нажав кнопку "Ввод!".


*Определитесь, кто Вы:
робот инопланетянин человек

Внимание! Время в таблицах - всемирное. Для получения местного времени необходимо прибавить поправку, которая равна 8 ч.

Смотрите также архив погоды в соседних городах и на ближайших метеорологических станциях:

Погода в Калгурли-Боулдере (Западная Австралия, Австралия) (206 км)
Погода в Кандердине (Западная Австралия, Австралия) (207 км)
Погода в Ньюдегейте (Западная Австралия, Австралия) (216 км)
Погода на Озере Грейс (Западная Австралия, Австралия) (224 км)
Погода в Норсмане (Западная Австралия, Австралия) (252 км)
Погода в Дауоллину (Западная Австралия, Австралия) (277 км)
Погода в Мунглинап Запад (Западная Австралия, Австралия) (288 км)
Погода в Салмон Гамс (Западная Австралия, Австралия) (289 км)
Погода в Джакапе (Западная Австралия, Австралия) (296 км)
Погода в Уондеринге (Западная Австралия, Австралия) (299 км)

Пояснения к столбцам:

Ветер - указаны скорость ветра в м/с - средняя за 10 мин, порывы в срок и между сроками (в фигурных скобках) и направление, откуда дует ветер: С - северный, СВ - северо-восточный, В - восточный, ЮВ - юго-восточный, Ю - южный, ЮЗ - юго-западный, З - западный, СЗ - северо-западный.
Видимость - горизонтальная дальность видимости в метрах или километрах. При видимости от 1 до 10 км при отсутствии осадков обычно наблюдается дымка, при ухудшении видимости до 1 км и менее - туман. В сухую погоду видимость может ухудшаться дымом, пылью или мглою.
Явления - указаны атмосферные явления, наблюдавшиеся в срок или в последний час перед сроком; фигурными скобками обозначены явления, наблюдавшиеся между сроками (за 1-3 часа до срока); квадратными скобками обозначены град или гололедные отложения с указанием их диаметра в мм.
Облачность - указаны через наклонную черту общая и нижняя облачность в баллах и высота нижней границы облаков в метрах; квадратными скобками обозначены формы облаков: Ci - перистые, Cs - перисто-слоистые, Cc - перисто-кучевые, Ac - высококучевые, As - высокослоистые, Sc - слоисто-кучевые, Ns - слоисто-дождевые, Cu - кучевые, Cb - кучево-дождевые. Подробнее классификацию облаков см. в Атласе облаков (PDF).
T - Температура воздуха - температура, измеренная на высоте 2 м над землей.
Td - Температура точки росы - температура, при понижении до которой содержащийся в воздухе водяной пар достигнет насыщения.
f - Относительная влажность воздуха - влажноcть воздуха, измеренная на высоте 2 м над землей.
Te - Эффективная температура - температура, которую ощущает одетый по сезону человек в тени. Характеристика душности погоды. При расчете учитывается влияние влажности воздуха и скорости ветра на теплоощущения человека.
Tes - Эффективная температура на солнце - температура, которую ощущает человек, с поправкой на солнечный нагрев. Характеристика знойности погоды. Зависит от высоты солнца над горизонтом, облачности и скорости ветра. Ночью, в пасмурную погоду, а также при ветре 12 м/с и более поправка равна нулю.
P - Атмосферное давление - приведенное к уровню моря атмосферное давление.
Po - Атмосферное давление - измеренное на уровне метеостанции атмосферное давление.
Tmin - Минимальная температура - минимум температуры воздуха на высоте 2 м над землей.
Tmax - Максимальная температура - максимум температуры воздуха на высоте 2 м над землей.
R - Количество осадков - Количество выпавших осадков за период времени, мм. При наведении курсора мыши на число - период времени, за который выпало указанное количество осадков.
R24 - Количество осадков - Количество выпавших осадков за 24 часа, мм.
S - Снежный покров - Высота снежного покрова, см. При наведении курсора мыши на число - состояние снежного покрова и степень покрытия местности в баллах.